This is the latest recevied weather packets stored in our database for station/object F4FEB-13. If no packets are shown the sender has not sent any weather packets the latest 10 day(s).
| Time | Temp. | Humidity | Pressure | Rain* | Wind** | Luminosity | Snow |
|---|---|---|---|---|---|---|---|
| 1777453177 | 13.89° C | 58% | 1016.9 hPa | 0 mm | - | - | - |
| 1777452877 | 13.89° C | 61% | 1016.9 hPa | 0 mm | - | - | - |
| 1777452277 | 13.33° C | 64% | 1016.9 hPa | 0 mm | - | - | - |
| 1777451977 | 12.78° C | 64% | 1016.9 hPa | 0 mm | - | - | - |
| 1777451677 | 12.78° C | 62% | 1016.9 hPa | 0 mm | - | - | - |
| 1777451377 | 12.78° C | 65% | 1016.9 hPa | 0 mm | - | - | - |
| 1777451078 | 12.78° C | 64% | 1016.9 hPa | 0 mm | - | - | - |
| 1777450778 | 12.22° C | 61% | 1016.9 hPa | 0 mm | - | - | - |
| 1777450478 | 12.78° C | 63% | 1016.9 hPa | 0 mm | - | - | - |
| 1777450178 | 12.22° C | 66% | 1016.9 hPa | 0 mm | - | - | - |
| 1777449878 | 11.67° C | 68% | 1016.9 hPa | 0 mm | - | - | - |
| 1777449578 | 11.67° C | 67% | 1017.1 hPa | 0 mm | - | - | - |
| 1777449278 | 11.67° C | 65% | 1016.9 hPa | 0 mm | - | - | - |
| 1777448978 | 11.67° C | 65% | 1016.9 hPa | 0 mm | - | - | - |
| 1777448378 | 11.67° C | 68% | 1016.7 hPa | 0 mm | - | - | - |
| 1777448078 | 11.67° C | 65% | 1016.6 hPa | 0 mm | - | - | - |
| 1777447778 | 11.67° C | 66% | 1016.6 hPa | 0 mm | - | - | - |
| 1777447478 | 11.11° C | 68% | 1016.5 hPa | 0 mm | - | - | - |
| 1777447178 | 11.11° C | 69% | 1016.5 hPa | 0 mm | - | - | - |
| 1777446881 | 10.56° C | 70% | 1016.5 hPa | 0 mm | - | - | - |
| 1777446878 | 10.56° C | 70% | 1016.5 hPa | 0 mm | - | - | - |
| 1777446578 | 11.11° C | 70% | 1016.4 hPa | 0 mm | - | - | - |
| 1777446278 | 11.11° C | 70% | 1016.3 hPa | 0 mm | - | - | - |
| 1777445978 | 11.11° C | 70% | 1016.3 hPa | 0 mm | - | - | - |
| 1777445678 | 10.56° C | 70% | 1016.3 hPa | 0 mm | - | - | - |
* Rain latest hour (hover to see other rain measurements)
** Current wind speed in m/s (hover to see current wind gust speed)